Weather History for KIEN - March, 2012

Change the Weather History Date:

Thursday, March 8, 2012

  Actual Average Record
Temperature  
Mean Temperature 35 °F 34 °F  
Max Temperature 52 °F 47 °F 70 °F (2007)
Min Temperature 18 °F 20 °F -5 °F (1998)
Degree Days  
Heating Degree Days 30 31  
Month to date heating degree days 233 262  
Since 1 July heating degree days 5297 5612  
Cooling Degree Days 0 0  
Month to date cooling degree days 0 0  
Year to date cooling degree days 0 0  
Moisture  
Dew Point 14 °F    
Average Humidity 48    
Maximum Humidity 77    
Minimum Humidity 18    
Precipitation  
Precipitation 0.00 in 0.02 in 0.13 in (2011)
Month to date precipitation T 0.15  
Year to date precipitation 1.37 0.94  
Sea Level Pressure  
Sea Level Pressure 30.44 in    
Wind  
Wind Speed 6 mph (West)    
Max Wind Speed 18 mph    
Max Gust Speed 24 mph    
Visibility 10 miles    
Events      
T = Trace of Precipitation, MM = Missing Value Source: NWS Daily Summary

Daily Weather History Graph

Daily Weather History Graph

Search for Another Location

Airport or City:

Trip Planner

Search our weather history database for the weather conditions in past years. The results will help you decide how hot, cold, wet, or windy it might be!

Date:

Astronomy

Mar. 08, 2012 Rise Set
Actual Time 6:13 AM MST 5:48 PM MST
Civil Twilight 5:45 AM MST 6:17 PM MST
Nautical Twilight 5:12 AM MST 6:49 PM MST
Astronomical Twilight 4:39 AM MST 7:23 PM MST
Moon 6:41 PM MST (3/8) 5:56 AM MST (3/8)
Length of Visible Light 12h 31m
Length of Day
11h 35m
Full, 100% of the Moon is Illuminated
Mar 8
Full
Mar 14
Last Quarter
Mar 22
New
Mar 30
First Quarter
Apr 6
Full

Hourly Weather History & Observations

Time (MST) Temp. Windchill Dew Point Humidity Pressure Visibility Wind Dir Wind Speed Gust Speed Precip Events Conditions
1:52 AM 23.0 °F 18.4 °F 14.0 °F 68% 30.36 in 10.0 mi WNW 3.5 mph - N/A   Clear
2:52 AM 21.0 °F 13.4 °F 16.0 °F 81% 30.37 in 10.0 mi WSW 5.8 mph - N/A   Clear
3:52 AM 21.9 °F 13.4 °F 16.0 °F 78% 30.38 in 10.0 mi West 6.9 mph - N/A   Clear
4:52 AM 21.0 °F 12.4 °F 15.1 °F 78% 30.41 in 10.0 mi West 6.9 mph - N/A   Clear
5:52 AM 19.0 °F 13.9 °F 14.0 °F 81% 30.44 in 10.0 mi West 3.5 mph - N/A   Clear
6:52 AM 21.0 °F 14.6 °F 16.0 °F 81% 30.47 in 10.0 mi West 4.6 mph - N/A   Clear
7:52 AM 28.9 °F 23.9 °F 19.0 °F 67% 30.48 in 10.0 mi West 4.6 mph - N/A   Clear
8:52 AM 36.0 °F 28.5 °F 19.0 °F 50% 30.48 in 10.0 mi WSW 10.4 mph - N/A   Clear
9:52 AM 42.1 °F 35.2 °F 16.0 °F 35% 30.47 in 10.0 mi West 12.7 mph - N/A   Clear
10:52 AM 44.1 °F 39.5 °F 10.0 °F 25% 30.46 in 10.0 mi WNW 8.1 mph 20.7 mph N/A   Clear
11:52 AM 46.9 °F - 9.0 °F 21% 30.45 in 10.0 mi West 15.0 mph 20.7 mph N/A   Clear
12:52 PM 48.0 °F - 9.0 °F 21% 30.43 in 10.0 mi West 16.1 mph 23.0 mph N/A   Clear
1:52 PM 48.9 °F - 9.0 °F 20% 30.40 in 10.0 mi West 10.4 mph 18.4 mph N/A   Clear
2:52 PM 51.1 °F - 10.0 °F 19% 30.41 in 10.0 mi West 9.2 mph 21.9 mph N/A   Clear
3:52 PM 51.1 °F - 10.0 °F 19% 30.40 in 10.0 mi West 9.2 mph 18.4 mph N/A   Clear
4:52 PM 50.0 °F - 9.0 °F 19% 30.42 in 10.0 mi WNW 10.4 mph - N/A   Clear
5:52 PM 46.0 °F 43.9 °F 10.9 °F 24% 30.44 in 10.0 mi West 4.6 mph - N/A   Clear
6:52 PM 34.0 °F 31.0 °F 14.0 °F 44% 30.48 in 10.0 mi WSW 3.5 mph - N/A   Clear
7:52 PM 30.9 °F - 14.0 °F 50% 30.49 in 10.0 mi Calm Calm - N/A   Clear
8:52 PM 28.0 °F - 16.0 °F 61% 30.49 in 10.0 mi Calm Calm - N/A   Clear
9:52 PM 25.0 °F - 16.0 °F 69% 30.50 in 10.0 mi Calm Calm - N/A   Clear
10:52 PM 23.0 °F 18.4 °F 16.0 °F 74% 30.48 in 10.0 mi ENE 3.5 mph - N/A   Clear
11:52 PM 19.9 °F - 14.0 °F 78% 30.47 in 10.0 mi Calm Calm - N/A   Clear